Regional Weather Roundup
Issued by NWS

Home | Current Version | Previous Version | Text Only | Print | Product List | Glossary Off
Versions: 1 2 3 4 5 6 7 8 9 10 11 12 13 14 15 16 17 18 19 20 21 22 23 24 25 26 27 28 29 30 31 32 33 34 35 36 37 38 39 40 41 42 43 44 45 46 47 48 49 50

000
ASUS43 KDTX 032110
RWRMI
MICHIGAN HOURLY REGIONAL WEATHER ROUNDUP
NATIONAL WEATHER SERVICE DETROIT/PONTIAC MI
500 PM EDT MON AUG 03 2015

NOTE: "FAIR" INDICATES FEW OR NO CLOUDS BELOW 12,000 FEET WITH NO
SIGNIFICANT WEATHER AND/OR OBSTRUCTION TO VISIBILITY.

MIZ047>049-052>055-059>063-066>070-074>076-081>083-032200-
SOUTHEAST LOWER MICHIGAN

CITY           SKY/WX    TMP DP  RH WIND       PRES   REMARKS
ADRIAN         MOSUNNY   79  58  48 NW15G22   29.80S
ALMA           CLOUDY    76  51  42 W12G20    29.79S
ANN ARBOR      MOSUNNY   81  54  39 W18G24    29.78S
BAD AXE        MOSUNNY   75  54  48 W13       29.78S
CARO           PTSUNNY   76  56  49 W8        29.77S
DETROIT CITY   MOSUNNY   78  59  51 NW12G18   29.77F
DETROIT        PTSUNNY   81  60  48 NW12      29.77F
FLINT          PTSUNNY   77  58  51 W9        29.78F
GROSSE ILE     MOSUNNY   82  61  47 W12       29.75F
HILLSDALE      SUNNY     78  53  40 W12G22    29.83S
HOWELL         PTSUNNY   77  55  45 NW15      29.80S

CITY           SKY/WX    TMP DP  RH WIND       PRES   REMARKS
JACKSON        MOSUNNY   77  55  46 W17       29.81S
LAMBERTVILLE   MOSUNNY   82  62  49 W10G17    29.79S
LANSING        MOSUNNY   79  50  36 W15G23    29.81R
LAPEER         CLOUDY    71  56  59 CALM      29.79S
MASON          SUNNY     76  51  40 W14G20    29.81R
MONROE         PTSUNNY   80  62  54 W12       29.77S
MT. CLEMENS    MOSUNNY   72  64  77 NW8       29.76F
PONTIAC        MOSUNNY   75  61  61 NW10      29.79F
PORT HURON     PTSUNNY   73  63  68 CALM      29.77F
TRI CITIES     CLOUDY    77  52  41 W13       29.78S
MIDLAND        CLOUDY    78  48  35 W9        29.77S
TROY           MOSUNNY   78  60  53 NW7       29.80S
SAGINAW HB     CLOUDY    79  52  38 W10G17    29.77S
$$
MIZ043>046-050>051-056>058-064>065-071>073-077>080-032200-
SOUTHWEST LOWER MICHIGAN

CITY           SKY/WX    TMP DP  RH WIND       PRES   REMARKS
BATTLE CREEK     N/A    N/A N/A N/A MISG      29.84S
BENTON HARBOR  SUNNY     76  53  44 W10       29.85F
BIG RAPIDS     MOSUNNY   73  45  36 NW13      29.80R
COLDWATER      SUNNY     77  52  41 NW14G20   29.83S
FREMONT        FAIR      73  49  43 W13       29.81S
HOLLAND        SUNNY     76  57  51 VRB7G16   29.84F
GRAND RAPIDS   MOSUNNY   75  49  39 W16       29.83R
IONIA          FAIR      77  47  34 W14       29.81R
KALAMAZOO      SUNNY     77  49  37 W18G25    29.84S
LUDINGTON      SUNNY     76  59  56 SW9       29.81S
MARSHALL       SUNNY     77  51  41 W12       29.82S
MOUNT PLEASANT CLOUDY    77  50  39 NW7       29.78S
MUSKEGON       MOSUNNY   77  52  41 W10G16    29.82F
SOUTH HAVEN    SUNNY     74  57  53 W8        29.85S
$$
MIZ016>042-032200-
NORTHERN LOWER MICHIGAN

CITY           SKY/WX    TMP DP  RH WIND       PRES   REMARKS
ALPENA         CLOUDY    73  51  46 W8        29.75S
BEAVER ISLAND  LGT RAIN  62  58  87 CALM      29.78F
BELLAIRE       CLOUDY    70  52  52 W5        29.78S
CADILLAC       MOSUNNY   74  49  40 W12G20    29.80S
CHARLEVOIX     CLOUDY    69  54  58 SW7       29.80F
FRANKFORT      PTSUNNY   72  57  57 SW7       29.79F
GAYLORD        PTSUNNY   70  49  47 W13G22    29.79R
GRAYLING       PTSUNNY   70  49  48 NW8G18    29.80R
HARBOR SPRINGS CLOUDY    67  55  64 W5        29.77S
HOUGHTON LAKE  CLOUDY    72  50  45 NW10      29.80R
MANISTEE       PTSUNNY   72  48  43 W9        29.81S
OSCODA         CLOUDY    74  52  45 W14G22    29.74S
PELLSTON       CLOUDY    66  56  70 NW8       29.78R
ROGERS CITY    CLOUDY    68  57  67 NW6       29.76S
TRAVERSE CITY  PTSUNNY   74  49  41 W12G22    29.76S
$$
MIZ007>008-015-032200-
EASTERN UPPER MICHIGAN

CITY           SKY/WX    TMP DP  RH WIND       PRES   REMARKS
KINROSS        PTSUNNY   61  57  88 NW9       29.76R
MACKINAC ISLAN CLOUDY    64  55  70 W8        29.76S
NEWBERRY       PTSUNNY   67  52  57 W10G16    29.75F
S. S. MARIE    CLOUDY    63  53  70 W7        29.75R
MUNISING         N/A     68  55  63 NW15G22   29.77R
$$
MIZ004>006-011>014-085-032200-
CENTRAL UPPER MICHIGAN

CITY           SKY/WX    TMP DP  RH WIND       PRES   REMARKS
MANISTIQUE     HVY RAIN  64  59  82 NW10      29.78R
ESCANABA       PTSUNNY   70  61  73 N6        29.76S
MENOMINEE      PTSUNNY   73  52  46 N12       29.77S
SAWYER-GWINN   MOSUNNY   70  50  49 W16G24    29.77S
$$
MIZ001>003-009>011-084-032200-
WESTERN UPPER MICHIGAN

CITY           SKY/WX    TMP DP  RH WIND       PRES   REMARKS
IRON MOUNTAIN  PTSUNNY   71  51  49 NW14      29.79R
HOUGHTON       CLOUDY    63  51  65 W14       29.78R
COPPER HARBOR    N/A     67  52  58 N13G20    29.75R
IRONWOOD       PTSUNNY   66  54  63 NW10G21   29.81S
$$

ABBREVIATIONS USED IN REMARKS
   TC - TEMPERATURE IN CELSIUS
  WCI - WIND CHILL INDEX
   HX - HEAT INDEX
  VSB - VISIBILITY



USA.gov is the U.S. government's official web portal to all federal, state and local government web resources and services.